Location: Barcelona
(41.3830°N, 2.1830°E)
Time: 00:23:16
(UTC+02:00)

ISS - Pass Details

Date: 19 July 2019
Orbit: 409 x 418 km, 51.6° (Epoch: 22 July)

Event Time Altitude Azimuth Distance (km) Brightness Sun altitude
Rises 05:28:43 0° 296° (WNW) 2,342 -0.2 -10.8°
Reaches altitude 10° 05:31:00 10° 284° (WNW) 1,476 -1.3 -10.5°
Maximum altitude 05:33:50 26° 225° (SW) 836 -2.8 -10.1°
Drops below altitude 10° 05:36:39 10° 166° (SSE) 1,465 -1.2 -9.7°
Sets 05:38:55 0° 153° (SSE) 2,321 -0.1 -9.4°
